STARLINK-4549 (53433 NORAD) Tracking and Keplerian Element Data

This shows tracking and keplerian element data for the satellite.

Feedback or suggestion? Click here.




ElementValue
Catalog53433
NameSTARLINK-4549
Epoch Orbit799
Epoch Day270.25001157
Epoch Year2022
RAAN10.2167
Inclination53.2171
Eccentricity0.0002296
Argument of Perigee17.2952
Mean Anonmoly165.1853
Mean Motion15.73182111
Decay Rate0.00063582
L11 53433U 22097AX 22270.25001157 .00063582 00000+0 45434-3 0 9998
L22 53433 53.2171 10.2167 0002296 17.2952 165.1853 15.73182111 7995

Live tracking and technical data element details for STARLINK-4549 (NORAD 53433). STARLINK-4549 can be tracked NOW for your location showing map with azimuth and elevation plus other details from your city location.

Track the satellite on the map from your city or location and see movement details for azimuth, elevation, latitude, longitude, range, height, and movement on the map or in text.







IsCatalogInMostPopularTable: catalog: 53433, numindb: 5
Update: records affected: 1



GetName: 53433 STARLINK-4549

Hit Count: updated at: Fri, 30 Sep 2022 04:01:06 GMT